Lexington Weather

Lexington, Massachusetts, USA

73°F
8/7/2020 11:39am 
  • Lexington Conditions: Clear
  • Temperature: 73.2°F / 22.9°CWarmer 2.3°F than last hour.
  • Dew Point: 63.7°FIncreased 0.7°Fsince last hour.
  • Relative Humidity: 72%Decreased 4.0% since last hour.
  • Wind: Calm, 10-min avg: Calm, gust: 2 mph
  • Barometer: 30.13 inFalling 0.02  inHg/hr Falling Slowly
  • Visibility: 10 miles
  • Rain Today: 0.00 in
  •   

Regional Weather Roundup
for Boston / Norton, MA

        
000
ASUS41 KBOX 010704
RWRBOX

REGIONAL WEATHER ROUNDUP
NATIONAL WEATHER SERVICE BOSTON/NORTON MA
300 AM EDT SAT AUG 01 2020

NOTE:  "FAIR" INDICATES FEW OR NO CLOUDS BELOW 12,000 FEET WITH NO 
SIGNIFICANT WEATHER AND/OR OBSTRUCTIONS TO VISIBILITY.

MAZALL-010800-
EASTERN MASSACHUSETTS
  
CITY           SKY/WX    TMP DP  RH WIND       PRES   REMARKS
BOSTON         PTCLDY    73  63  70 NW5       29.85S                  
BEVERLY        CLEAR     65  63  93 CALM      29.85S                  
LAWRENCE       CLEAR     67  64  90 CALM      29.88S                  
BEDFORD        CLEAR     63  61  93 CALM      29.85S                  
BLUE HILL      NOT AVBL                                               
NORWOOD        CLEAR     62  59  90 CALM      29.85S FOG              
MARSHFIELD     CLEAR     66  66 100 W5        29.85R                  
PLYMOUTH       CLEAR     64  62  93 CALM      29.86S                  
TAUNTON        CLEAR     62  59  90 CALM      29.85S FOG              
NEW BEDFORD    FOG       62  62 100 CALM      29.84F VSB 3/4          
$$

MAZALL-010800-
CAPE COD AND THE ISLANDS
  
CITY           SKY/WX    TMP DP  RH WIND       PRES   REMARKS
FALMOUTH       CLEAR     66  66 100 CALM      29.85S                  
HYANNIS        CLEAR     68  67  96 N5        29.83S                  
CHATHAM        CLEAR     68  66  93 CALM      29.85S                  
PROVINCETOWN   CLEAR     64  62  93 NW3       29.85S FOG              
NANTUCKET      CLEAR     67  66  97 NW3       29.83F                  
MARTHAS VNYRD  CLEAR     64  64 100 NW5       29.84S FOG              
$$
 
MAZALL-010800-
CENTRAL AND WESTERN MASSACHUSETTS
  
CITY           SKY/WX    TMP DP  RH WIND       PRES   REMARKS
WORCESTER      CLEAR     69  65  86 W5        29.90S                  
FITCHBURG      CLEAR     65  61  87 N6        29.88S                  
ORANGE         CLEAR     63  61  93 NE3       29.90F                  
SPRINGFIELD    CLEAR     62  61  97 CALM      29.86S                  
WESTFIELD      CLEAR     64  62  93 CALM      29.88S                  
NORTH ADAMS    CLEAR     59  57  93 CALM      29.92S                  
PITTSFIELD     CLEAR     61  59  93 CALM      29.91S                  
$$
 
RIZALL-010800-
RHODE ISLAND
  
CITY           SKY/WX    TMP DP  RH WIND       PRES   REMARKS
PROVIDENCE     CLEAR     70  67  90 CALM      29.86S                  
NEWPORT        CLEAR     67  64  90 CALM      29.85F                  
BLOCK ISLAND   CLEAR     67  66  97 NW5       29.86S                  
SMITHFIELD     CLEAR     64  64 100 CALM      29.87F                  
WESTERLY       CLEAR     65  63  93 MISG      29.86S                  
$$
 
CTZALL-010800-
CONNECTICUT
  
CITY           SKY/WX    TMP DP  RH WIND       PRES   REMARKS
BRADLEY INTL   CLEAR     67  60  78 N3        29.86S                  
HARTFORD       CLEAR     70  67  90 CALM      29.86S                  
BRIDGEPORT     CLEAR     71  66  84 CALM      29.86S                  
DANBURY        CLEAR     64  63  96 SW3       29.89S                  
GROTON         CLEAR     66  65  96 N3        29.85S                  
NEW HAVEN      CLEAR     70  68  93 N3        29.86S                  
CHESTER        FAIR      68  68 100 CALM      29.87S                  
MERIDEN        CLEAR     67  64  90 CALM      29.86S                  
WILLIMANTIC    CLOUDY    68  66  93 CALM      29.87S                  
OXFORD         CLEAR     66  65  96 CALM      29.90S                  
$$

MEZ002-015-021-024-NHZ003-005-008-011-012-014-VTZ005-008-010800-
NORTHERN NEW ENGLAND
  
CITY           SKY/WX    TMP DP  RH WIND       PRES   REMARKS
PORTLAND ME    CLEAR     70  62  76 N6        29.85S                  
BANGOR ME      CLEAR     64  59  83 NW3       29.85R                  
CONCORD NH     CLEAR     64  60  87 CALM      29.88S                  
MANCHESTER NH  CLEAR     69  63  81 N5        29.85F                  
NASHUA NH      CLEAR     67  65  93 W6        29.88R                  
PORTSMOUTH NH  MOCLDY    68  60  74 NW3       29.84S                  
JAFFREY NH     CLEAR     60  57  89 CALM      29.92S                  
KEENE NH       CLEAR     60  60 100 CALM      29.91S                  
BURLINGTON VT  CLEAR     64  59  83 CALM      29.91R                  
MT. WASHINGTON CLEAR     48  45  87 NW13        N/A                   
$$

NYZ052-076-010800-
EASTERN NEW YORK
  
CITY           SKY/WX    TMP DP  RH WIND       PRES   REMARKS
ALBANY         MOCLDY    68  61  78 NW3       29.90S                  
NEW YORK CITY  PTCLDY    78  68  71 SW3       29.85S                  
$$
 
ANZALL-010800-
MARINE OBSERVATIONS
  
STATION/POSITION TIME  TEMP    WIND        PRES    VSBY  WAVE
                       AIR SEA DIR/SP/G                  HT/PER
                 (UTC) (F)     (DEG/KT/KT) (MB)    (MI)  (FT/S)
BOSTON BUOY      0650   72 73  290/  6/  8 1009.5S         1/10
BUZZARDS BAY     0600          340/  3/  3 1011.9R
NANTUCKET SOUND  0640      76  310/ 10/ 10 1009.6F
MASS BAY-STELLWA NOT AVBL
ISLE OF SHOALS   0600   70     300/  7/  8 1010.4F
S OF BLOCK IS    0626      76                N/A           3/ 9
$$

......................KEY.........................
  SKY/WX - SKY CONDITION/PRESENT WEATHER
  TMP    - TEMPERATURE IN FAHRENHEIT
  DWPT   - DEWPOINT IN FAHRENHEIT
  RH     - RELATIVE HUMIDITY IN PERCENT
  WIND   - DIRECTION AND SPEED IN MPH
  PRES   - MEAN SEA LEVEL PRESSURE IN INCHES OF HG
  WCI    - WIND CHILL INDEX
  VSB    - VISIBILITY IN MILES
  HX     - HEAT INDEX
  TC     - TEMPERATURE IN CELSIUS
  VRB    - VARIABLE WIND DIRECTION
  N/A    - NOT AVAILABLE
  
      

Other recent Regional Weather Roundups

Fri Aug 7, 11:04am

Fri Aug 7, 10:04am

Fri Aug 7, 9:04am

Fri Aug 7, 8:04am

Fri Aug 7, 7:04am

Fri Aug 7, 6:04am

Fri Aug 7, 5:04am

Fri Aug 7, 4:04am

Fri Aug 7, 3:04am

Fri Aug 7, 2:04am

Fri Aug 7, 1:05am

Fri Aug 7, 12:04am

Thu Aug 6, 11:04pm

Thu Aug 6, 10:04pm

Thu Aug 6, 9:04pm

Thu Aug 6, 8:04pm

Thu Aug 6, 7:04pm

Thu Aug 6, 6:04pm

Thu Aug 6, 5:04pm

Thu Aug 6, 4:05pm

Thu Aug 6, 3:04pm

Thu Aug 6, 2:05pm

Thu Aug 6, 1:04pm

Thu Aug 6, 12:04pm

Thu Aug 6, 11:04am

Thu Aug 6, 10:04am

Thu Aug 6, 9:04am

Thu Aug 6, 8:04am

Thu Aug 6, 7:04am

Thu Aug 6, 6:04am

Thu Aug 6, 5:04am

Thu Aug 6, 4:04am

Thu Aug 6, 3:04am

Thu Aug 6, 2:05am

Thu Aug 6, 1:04am

Thu Aug 6, 12:04am

Wed Aug 5, 11:04pm

Wed Aug 5, 10:04pm

Wed Aug 5, 9:04pm

Wed Aug 5, 8:05pm

Wed Aug 5, 7:04pm

Wed Aug 5, 6:04pm

Wed Aug 5, 5:04pm

Wed Aug 5, 4:05pm

Wed Aug 5, 3:04pm

Wed Aug 5, 2:04pm

Wed Aug 5, 1:04pm

Wed Aug 5, 12:04pm

Wed Aug 5, 11:04am

Wed Aug 5, 10:04am

Wed Aug 5, 9:04am

Wed Aug 5, 8:04am

Wed Aug 5, 7:04am

Wed Aug 5, 6:04am

Wed Aug 5, 5:04am

Wed Aug 5, 4:04am

Wed Aug 5, 3:04am

Wed Aug 5, 2:05am

Wed Aug 5, 1:04am

Wed Aug 5, 12:05am

Tue Aug 4, 11:05pm

Tue Aug 4, 10:05pm

Tue Aug 4, 9:04pm

Tue Aug 4, 8:04pm

Tue Aug 4, 7:05pm

Tue Aug 4, 6:05pm

Tue Aug 4, 5:05pm

Tue Aug 4, 4:05pm

Tue Aug 4, 3:04pm

Tue Aug 4, 2:05pm

Tue Aug 4, 1:04pm

Tue Aug 4, 12:05pm

Tue Aug 4, 11:04am

Tue Aug 4, 10:04am

Tue Aug 4, 9:04am

Tue Aug 4, 8:04am

Tue Aug 4, 7:04am

Tue Aug 4, 6:04am

Tue Aug 4, 5:04am

Tue Aug 4, 4:04am

Tue Aug 4, 3:04am

Tue Aug 4, 2:04am

Tue Aug 4, 1:04am

Tue Aug 4, 12:04am

Mon Aug 3, 11:04pm

Mon Aug 3, 10:04pm

Mon Aug 3, 9:04pm

Mon Aug 3, 8:05pm

Mon Aug 3, 7:04pm

Mon Aug 3, 6:04pm

Mon Aug 3, 5:04pm

Mon Aug 3, 4:05pm

Mon Aug 3, 3:04pm

Mon Aug 3, 2:04pm

Mon Aug 3, 1:04pm

Mon Aug 3, 12:05pm

Mon Aug 3, 11:04am

Mon Aug 3, 10:04am

Mon Aug 3, 9:05am

Mon Aug 3, 8:04am

Mon Aug 3, 7:04am

Mon Aug 3, 6:04am

Mon Aug 3, 5:04am

Mon Aug 3, 4:04am

Mon Aug 3, 3:04am

Mon Aug 3, 2:04am

Mon Aug 3, 1:04am

Mon Aug 3, 12:05am

Sun Aug 2, 11:04pm

Sun Aug 2, 10:04pm

Sun Aug 2, 9:04pm

Sun Aug 2, 8:04pm

Sun Aug 2, 7:04pm

Sun Aug 2, 6:04pm

Sun Aug 2, 5:04pm

Sun Aug 2, 4:05pm

Sun Aug 2, 3:04pm

Sun Aug 2, 2:05pm

Sun Aug 2, 1:04pm

Sun Aug 2, 12:04pm

Sun Aug 2, 11:04am

Sun Aug 2, 10:04am

Sun Aug 2, 9:05am

Sun Aug 2, 8:05am

Sun Aug 2, 7:04am

Sun Aug 2, 6:04am

Sun Aug 2, 5:04am

Sun Aug 2, 4:05am

Sun Aug 2, 3:04am

Sun Aug 2, 2:04am

Sun Aug 2, 1:04am

Sun Aug 2, 12:05am

Sat Aug 1, 11:04pm

Sat Aug 1, 10:04pm

Sat Aug 1, 9:04pm

Sat Aug 1, 8:05pm

Sat Aug 1, 7:04pm

Sat Aug 1, 6:04pm

Sat Aug 1, 5:05pm

Sat Aug 1, 4:05pm

Sat Aug 1, 3:04pm

Sat Aug 1, 2:04pm

Sat Aug 1, 1:04pm

Sat Aug 1, 12:04pm

Sat Aug 1, 11:05am

Sat Aug 1, 10:05am

Sat Aug 1, 9:04am

Sat Aug 1, 8:04am

Sat Aug 1, 7:04am

Sat Aug 1, 6:04am

Sat Aug 1, 5:04am

Sat Aug 1, 4:05am

Sat Aug 1, 2:04am

Sat Aug 1, 1:04am

Sat Aug 1, 12:05am

Fri Jul 31, 11:05pm

Fri Jul 31, 10:04pm

Fri Jul 31, 9:04pm

Fri Jul 31, 8:05pm

Fri Jul 31, 7:05pm

Fri Jul 31, 6:04pm

Fri Jul 31, 5:04pm

Fri Jul 31, 4:05pm

Fri Jul 31, 3:04pm

Fri Jul 31, 2:05pm

Fri Jul 31, 1:04pm

Fri Jul 31, 12:04pm

Meta data:

ID: 53d9e72b-745d-4194-a192-29d21a1e8c61
Link: https://api.weather.gov/products/53d9e72b-745d-4194-a192-29d21a1e8c61